Portada
METAR-TAF:

METAR-TAF

Aeropuertos :

Teruel, España

Aeródromo de Teruel

latitud: 40-24-43N, longitud: 01-13-03W, altitud: 1030 m

Observación

El informe se hizo hace 11 minutos, a las 22:30 UTC
Viento calma
Temperatura 19°C
Humedad 83%
Presión 1021 hPa
Visibilidad 10 km o más

METAR: LETL 222230Z AUTO 00000KT 9999 NCD 19/16 Q1021

Hora: 00:41 (22:41 UTC)


TAF: falta

Observaciones y pronósticos meteorológicos de más de 4000 aeropuertos (mensajes METAR y TAF).

Los puntos amarillos y rojos representan las estaciones disponibles.

Ponga el ratón en el punto deseado para ver el nombre de la estación.

Haga clic para ver las observaciones y los pronósticos meteorológicos.

Para cambiar el mapa : haga clic en los botones verdes con una cruz de color negro para hacer un zoom, en el botón verde con un guión para alejar o en las flechas verdes para mapas adyacentes.


METAR-TAF: